"Pseudo-MPEC" for Sar2661

Created 2023 Jan 26 21:22:22 UT using Find_Orb

Click here for an explanation of pseudo-MPECs

 
 Astrometry: 
     Sar2661* C2023 01 25)x+LheIMw)FtQjeH=JoRv\W9Ee93\BegHS-r/4Il[CFf42h+\^]YK88
     Sar2661  C2023 01 25tnL?Ye,pbq]0$D\g3,Yn)Z=8HN`_aZT3TgS:];2u%jsbX,H7Q=4IK88
     Sar2661  C2023 01 25/7K8Q1y2?3@`@ZD[FsAstrometry:7lIyJ`SVXB%AYPY0;3v4u@QK88
     Sar2661 KC2023 01 25sUwloh8r77vRk,dg1_s0W,aF,WA.n[`:P(R@jSL5_jqO3HfD.'j:K88
     Sar2661 KC2023 01 259e@GYUaM,j.dJa6_G;r/q+27O@?t5X_/Yseuq?Y)PAsiBS*:bUEtK88
     Sar2661 KC2023 01 25.05361709 14 07.38 +33 54 07.0    ~1P1b       XNEOCPI93
     Sar2661 KC2023 01 25.05693509 14 08.91 +33 55 03.1    ~1P1b 20.3 GXNEOCPI93
     Sar2661 KC2023 01 25.06017109 14 10.45 +33 55 57.8    ~1P1b 19.7 GXNEOCPI93
     Sar2661 KC2023 01 25.06355209 14 12.04 +33 56 55.2    ~1P1q 19.4 GXNEOCPI93
     Sar2661 KC2023 01 25.06499009 14 12.68 +33 57 19.9    ~1P1q 19.9 GXNEOCPI93
     Sar2661 KC2023 01 25.06634709 14 13.37 +33 57 43.0    ~1P1q 20.2 GXNEOCPI93
     Sar2661 KC2023 01 25mNofredacted;*x91i$,iOKp/.P'jr4NfclickQ^e%Qmtqp$o2rZK88
     Sar2661 KC2023 01 25UvgDLln5!Ie\97qAW%B'05[+*qxeO,%UxsjSB/65a1WcjyjU4F6tK88
     Sar2661 KC2023 01 25'uE%`.F+cD$-R!phjp)U'FFjUo7ECr@BQZH`S#%2eWg[yWR\gY(gK88
     Sar2661  C2023 01 25:LBc=A,5b(gvQ'W^*6pom7+FI](6pd#djyM.@3w\YGEj+PVyMm*s654
     Sar2661  C2023 01 25A!,le/V/.^=)q;eg3xhere4YhtcH*uQGnHBIT4hdExL);U0uhDsV654
     Sar2661  C2023 01 25Wb*@04\`@]Thfor$B:l`_jgB`vCJqenkAK-Eqn(W4efEDE:6_S[L654
     Sar2661 IC2023 01 25vAI?k@^:eY?L_eDTGUhfAk2?jLVO%kV!f%@WyXK?8EkwdiQ1Etw@L01
     Sar2661 IC2023 01 25?/`/[p8;anMM7^Modl-/7+s'6*0[F)E`8VQAqy8DMO]TDG,07k]'L01
     Sar2661 MC2023 01 25ADlEuG+h(s#3r;2yDISCJ-OZE@==!^m:aCbF1Db^GP0cb0a1=*5KL01
     Sar2661 KC2023 01 25YopyfgU$)jEZ70$Sn)%CEi*V,5kWn:'HZoW^xYWC%7Zipg^vq=?`L01
     Sar2661 KC2023 01 25.81697 09 20 38.95 +37 24 07.2    ~1PKq 19.5 GXNEOCPC95
     Sar2661 KC2023 01 25.84105 09 20 51.24 +37 30 39.7    ~1PKq 19.7 GXNEOCPC95
     Sar2661  C2023 01 26#Ml8r$ag_cGT@,-ycPXTdHJQ`Ws?=wFc5explanationgP+M9S[Y654
     Sar2661  C2023 01 269B3Vrk0695hyiD0ccM`/7O(Xg+?tAS3cfi6WTLqinJ29[uVb[@y1654
     Sar2661  C2023 01 26HX75=0d8cwOAl-urXg\PZ=L6aVYLX7cH/t2G7c#g*ot%h,w/h(i`654

Station data:
(654) Table Mountain Observatory, Wrightwood-PHMC  (N34.381820 W117.681590)
   US/California.  Observers P. Choi, N. Saini, C. Zhai, R. Trahan, M. Shao.
(C95) SATINO Remote Observatory, Haute Provence  (N43.932040 E5.712390)
   France.  Observer J. Jahn. 0.60-m f/3.2 Newtonian reflector + CCD.
(I93) St Pardon de Conques  (N44.558708 W0.203000)  France.  Observers F.
   Losse, W. D'Anna. Measurer F. Losse. 0.40-m f/3.7 reflector + CCD.
(K88) GINOP-KHK, Piszkéstető  (N47.917619 E19.893600)  Hungary.  Observer K.
   Sárneczky. 0.60-m Schmidt + CCD.
(L01) Višnjan Observatory, Tičan  (N45.290897 E13.749300)  Croatia.
   Observers K. Korlević, D. Pujagic, V. Dobos. Measurers D. Pujagic, K.
   Korlević. 1.0-m f/2.9 reflector + CCD.

Orbital elements:  Sar2661
   Perihelion 2023 Jan 22.19405 +/- 0.0269 TT =  4:39:26 (JD 2459966.69405)
Epoch 2023 Jan 26.0 TT = JDT 2459970.5   Earth MOID: 0.1092      AutoNEOCP
M   0.92286709 +/- 0.014            (J2000 ecliptic)
n   0.24248036 +/- 0.00335          Peri.    0.38707 +/- 0.029
a   2.54693778 +/- 0.0234           Node   122.08113 +/- 0.0030
e   0.5707193 +/- 0.00379           Incl.   30.38871 +/- 0.09
P   4.06                   H 23.84  G  0.15   U  8.9
q 1.09335115 +/- 0.000412    Q 4.00052442 +/- 0.0465
25 of 26 observations 2023 Jan. 25-26 (33.0 hr); mean residual 0".34
Residuals in arcseconds: 
230125 K88  .51-  .10+    230125 I93  .24-  .41+    230125 L01  .37-  .66-    
230125 K88  .43+  .82+    230125 I93  .42+  .57+    230125 L01  .24+  .18-    
230125 K88( .35-  1.9+)   230125 K88  .55-  .18-    230125 L01  .12-  .83+    
230125 K88  .44-  .37-    230125 K88  .36+  .05-    230125 C95  .33-  .21-    
230125 K88  .05+  .78-    230125 K88  .02+  .03+    230125 C95  .12+  .08+    
230125 I93  .18+  .06-    230125 654  .21+  .19-    230126 654  .09+  .02+    
230125 I93  .14-  .13-    230125 654  .08-  .12-    230126 654  .02-  .03-    
230125 I93  .14+  .19-    230125 654  .09-  .16-    230126 654  .08-  .08-    
230125 I93  .19+  .02+    230125 L01  .54+  .50+    

Ephemerides (geocentric):
Date (UTC) HH   RA             Dec           delta  r     elong  mag " sig PA
---- --------  ------------   ------------  ------ ------ -----  --- --------
2023 01 26 21  09 29 57.529   +41 57 13.23  .12129 1.0949 153.9 20.6 .226  98
2023 01 26 22  09 30 20.335   +42 07 28.18  .12147 1.0949 153.8 20.6 .231  97
2023 01 26 23  09 30 43.189   +42 17 40.87  .12166 1.0950 153.6 20.6 .237  97
2023 01 27 00  09 31 06.092   +42 27 51.29  .12185 1.0950 153.4 20.6 .242  96
2023 01 27 01  09 31 29.042   +42 37 59.44  .12204 1.0950 153.2 20.6 .248  96
2023 01 27 02  09 31 52.040   +42 48 05.30  .12223 1.0950 153.1 20.6 .253  95
2023 01 27 03  09 32 15.087   +42 58 08.87  .12242 1.0951 152.9 20.7 .259  95
2023 01 27 04  09 32 38.181   +43 08 10.16  .12262 1.0951 152.7 20.7 .264  94
2023 01 27 05  09 33 01.322   +43 18 09.15  .12281 1.0951 152.6 20.7 .270  94
2023 01 27 06  09 33 24.512   +43 28 05.83  .12301 1.0952 152.4 20.7 .275  94
2023 01 27 07  09 33 47.749   +43 38 00.22  .12321 1.0952 152.2 20.7 .281  93
2023 01 27 08  09 34 11.035   +43 47 52.30  .12341 1.0952 152.0 20.7 .286  93
2023 01 27 09  09 34 34.367   +43 57 42.07  .12361 1.0952 151.9 20.7 .292  92
2023 01 27 10  09 34 57.748   +44 07 29.52  .12381 1.0953 151.7 20.7 .297  92
2023 01 27 11  09 35 21.176   +44 17 14.66  .12401 1.0953 151.5 20.7 .303  91
2023 01 27 12  09 35 44.651   +44 26 57.48  .12422 1.0953 151.4 20.7 .309  91
2023 01 27 13  09 36 08.174   +44 36 37.97  .12442 1.0954 151.2 20.7 .314  91
2023 01 27 14  09 36 31.744   +44 46 16.15  .12463 1.0954 151.0 20.7 .320  90
2023 01 27 15  09 36 55.362   +44 55 51.99  .12484 1.0954 150.8 20.8 .326  90
2023 01 27 16  09 37 19.027   +45 05 25.50  .12505 1.0955 150.7 20.8 .331  90
2023 01 27 17  09 37 42.740   +45 14 56.69  .12526 1.0955 150.5 20.8 .337  89
2023 01 27 18  09 38 06.499   +45 24 25.54  .12547 1.0955 150.3 20.8 .343  89
2023 01 27 19  09 38 30.306   +45 33 52.05  .12568 1.0956 150.2 20.8 .348  88
2023 01 27 20  09 38 54.159   +45 43 16.23  .12590 1.0956 150.0 20.8 .354  88
2023 01 27 21  09 39 18.060   +45 52 38.07  .12611 1.0956 149.9 20.8 .360  88
2023 01 27 22  09 39 42.008   +46 01 57.58  .12633 1.0957 149.7 20.8 .366  87
2023 01 27 23  09 40 06.002   +46 11 14.74  .12654 1.0957 149.5 20.8 .372  87
2023 01 28 00  09 40 30.044   +46 20 29.57  .12676 1.0957 149.4 20.8 .377  87
2023 01 28 01  09 40 54.132   +46 29 42.06  .12698 1.0958 149.2 20.8 .383  86
2023 01 28 02  09 41 18.266   +46 38 52.20  .12720 1.0958 149.0 20.8 .389  86
2023 01 28 03  09 41 42.448   +46 48 00.01  .12743 1.0958 148.9 20.8 .395  86
2023 01 28 04  09 42 06.676   +46 57 05.47  .12765 1.0959 148.7 20.9 .401  86
2023 01 28 05  09 42 30.950   +47 06 08.60  .12788 1.0959 148.5 20.9 .407  85
2023 01 28 06  09 42 55.270   +47 15 09.39  .12810 1.0959 148.4 20.9 .413  85
2023 01 28 07  09 43 19.637   +47 24 07.84  .12833 1.0960 148.2 20.9 .419  85
2023 01 28 08  09 43 44.050   +47 33 03.95  .12856 1.0960 148.1 20.9 .425  84
2023 01 28 09  09 44 08.510   +47 41 57.72  .12879 1.0960 147.9 20.9 .431  84
2023 01 28 10  09 44 33.015   +47 50 49.16  .12902 1.0961 147.7 20.9 .437  84
2023 01 28 11  09 44 57.566   +47 59 38.26  .12925 1.0961 147.6 20.9 .443  83
2023 01 28 12  09 45 22.163   +48 08 25.03  .12948 1.0962 147.4 20.9 .449  83
2023 01 28 13  09 45 46.805   +48 17 09.46  .12971 1.0962 147.3 20.9 .455  83
2023 01 28 14  09 46 11.494   +48 25 51.57  .12995 1.0962 147.1 20.9 .461  83
2023 01 28 15  09 46 36.227   +48 34 31.34  .13018 1.0963 147.0 20.9 .467  82
2023 01 28 16  09 47 01.007   +48 43 08.79  .13042 1.0963 146.8 21.0 .474  82
2023 01 28 17  09 47 25.831   +48 51 43.92  .13066 1.0963 146.7 21.0 .480  82
2023 01 28 18  09 47 50.701   +49 00 16.72  .13090 1.0964 146.5 21.0 .486  81
2023 01 28 19  09 48 15.616   +49 08 47.20  .13114 1.0964 146.3 21.0 .492  81
2023 01 28 20  09 48 40.576   +49 17 15.37  .13138 1.0965 146.2 21.0 .498  81